sat.trackr.live / text

‹ back to catalog

STARLINK-32330

NORAD 61850 · 2024-202F

PAYLOAD ACTIVE UNKNOWN

§ Identity

Operator
Country
US
Launch date
2024-11-07
Launch site
AFETR
Launch vehicle
Mass (kg)
RCS (m²)

Purposes: comms

External: N2YO · Heavens-Above · Gunter

§ Orbital elements

Epoch: 2026-09-20T22:41:38.289120Z

Period
94.27 min
Inclination
42.9997°
Eccentricity
0.0001096
Mean motion
15.27576612 rev/d
Perigee alt
482.3 km
Apogee alt
483.8 km
Semi-major
6,861.2 km
B*
1.2888e-5
RAAN
214.9324°
Arg perigee
270.6995°
Mean anomaly
89.3731°
Rev number
10,520

§ Raw data

STARLINK-323301 61850U 24202F   26263.94558205  .00000093  00000+0  12888-4 0  99992 61850  42.9997 214.9324 0001096 270.6995  89.3731 15.27576612105202

JSON: /api/v1/satellites/61850 · /tle

For live sub-satellite position, see the globe view (requires WebGL).

§ Visibility from observer

Set your observer location to see the next 7 days of passes ≥ 10°. The values pass through the URL so the page stays shareable.

No JS? Fill the form by hand. The geolocation button needs JavaScript.